PDA5507 UKLN-UKBB

Flight info

Callsign PDA5507
Flight time 0h 47m
Altitude 27000
Route TUMBI DCT SLV
Aircraft B738/M-SDE2E3FGHIRWXY/LB1

Departure

Time 2026-05-04 18:17
Airport Chernivtsi International Airport (UKLN)

Arrival

Time 2026-05-04 19:04
Airport Boryspil International Airport (UKBB)
Time Latitude Longitude Altitude Speed Heading
2026-05-04 18:02 48.26675 25.97139 795 ft 0 kts 352°
2026-05-04 18:14 48.26690 25.97136 795 ft 4 kts 356°
2026-05-04 18:14 48.26719 25.97178 795 ft 9 kts 79°
2026-05-04 18:15 48.26734 25.97310 794 ft 0 kts 81°
2026-05-04 18:15 48.26739 25.97362 793 ft 6 kts 82°
2026-05-04 18:15 48.26727 25.97414 793 ft 6 kts 142°
2026-05-04 18:16 48.26709 25.97431 793 ft 0 kts 150°
2026-05-04 18:16 48.26609 25.97505 791 ft 39 kts 153°
2026-05-04 18:17 48.25262 25.98537 818 ft 166 kts 154°
2026-05-04 18:17 48.24227 25.99338 1431 ft 167 kts 154°
2026-05-04 18:17 48.22033 26.00850 2666 ft 181 kts 154°
2026-05-04 18:18 48.20872 26.01707 3114 ft 194 kts 152°
2026-05-04 18:18 48.19616 26.02696 3508 ft 213 kts 151°
2026-05-04 18:18 48.18277 26.03727 4052 ft 225 kts 152°
2026-05-04 18:18 48.16927 26.05096 4442 ft 243 kts 130°
2026-05-04 18:19 48.16327 26.09923 5600 ft 259 kts 67°
2026-05-04 18:19 48.17323 26.12139 6336 ft 262 kts 43°
2026-05-04 18:19 48.18829 26.13678 6892 ft 269 kts 24°
2026-05-04 18:20 48.20626 26.14407 7107 ft 272 kts
2026-05-04 18:20 48.22507 26.14667 7061 ft 267 kts 11°
2026-05-04 18:20 48.24241 26.15695 7325 ft 279 kts 33°
2026-05-04 18:20 48.25625 26.17606 8392 ft 270 kts 51°
2026-05-04 18:21 48.26699 26.19958 9118 ft 275 kts 56°
2026-05-04 18:21 48.27692 26.22344 10045 ft 271 kts 55°
2026-05-04 18:21 48.28739 26.24699 10653 ft 280 kts 52°
2026-05-04 18:21 48.30004 26.27041 11077 ft 295 kts 46°
2026-05-04 18:22 48.31434 26.29320 11524 ft 310 kts 44°
2026-05-04 18:22 48.32967 26.31701 11953 ft 325 kts 45°
2026-05-04 18:22 48.34560 26.34220 12353 ft 341 kts 45°
2026-05-04 18:22 48.36197 26.36868 12978 ft 349 kts 46°
2026-05-04 18:23 48.37832 26.39551 13722 ft 354 kts 46°
2026-05-04 18:23 48.39491 26.42294 14519 ft 357 kts 46°
2026-05-04 18:23 48.41146 26.45037 15311 ft 361 kts 46°
2026-05-04 18:23 48.42848 26.47859 16123 ft 365 kts 46°
2026-05-04 18:24 48.44539 26.50664 16905 ft 368 kts 46°
2026-05-04 18:24 48.46273 26.53542 17698 ft 372 kts 46°
2026-05-04 18:24 48.48020 26.56442 18423 ft 376 kts 46°
2026-05-04 18:24 48.49780 26.59365 19120 ft 381 kts 46°
2026-05-04 18:25 48.51561 26.62329 19789 ft 386 kts 46°
2026-05-04 18:25 48.53353 26.65317 20468 ft 390 kts 47°
2026-05-04 18:25 48.55195 26.68392 21131 ft 395 kts 47°
2026-05-04 18:25 48.57016 26.71435 21774 ft 399 kts 47°
2026-05-04 18:26 48.58882 26.74559 22387 ft 403 kts 47°
2026-05-04 18:26 48.60759 26.77705 23030 ft 407 kts 47°
2026-05-04 18:26 48.62651 26.80880 23632 ft 411 kts 47°
2026-05-04 18:26 48.64567 26.84100 24227 ft 414 kts 47°
2026-05-04 18:27 48.66513 26.87374 24779 ft 419 kts 47°
2026-05-04 18:27 48.68457 26.90650 25322 ft 423 kts 47°
2026-05-04 18:27 48.70408 26.93940 25835 ft 427 kts 47°
2026-05-04 18:27 48.72394 26.97293 26290 ft 431 kts 47°
2026-05-04 18:28 48.74409 27.00699 26776 ft 435 kts 47°
2026-05-04 18:28 48.76434 27.04128 27045 ft 439 kts 47°
2026-05-04 18:28 48.78446 27.07538 27045 ft 435 kts 47°
2026-05-04 18:28 48.80454 27.10948 27051 ft 431 kts 47°
2026-05-04 18:29 48.82437 27.14320 27054 ft 432 kts 47°
2026-05-04 18:29 48.84438 27.17727 27056 ft 433 kts 47°
2026-05-04 18:29 48.86457 27.21169 27056 ft 432 kts 47°
2026-05-04 18:29 48.88459 27.24585 27057 ft 432 kts 47°
2026-05-04 18:30 48.92437 27.31388 27056 ft 432 kts 47°
2026-05-04 18:30 48.94424 27.34793 27057 ft 433 kts 47°
2026-05-04 18:30 48.96420 27.38216 27057 ft 433 kts 47°
2026-05-04 18:31 48.98410 27.41635 27056 ft 433 kts 47°
2026-05-04 18:31 49.00409 27.45072 27055 ft 432 kts 47°
2026-05-04 18:31 49.02380 27.48466 27056 ft 432 kts 47°
2026-05-04 18:31 49.04370 27.51897 27055 ft 432 kts 47°
2026-05-04 18:32 49.06374 27.55357 27055 ft 432 kts 47°
2026-05-04 18:32 49.08364 27.58799 27057 ft 432 kts 47°
2026-05-04 18:32 49.10338 27.62216 27053 ft 432 kts 47°
2026-05-04 18:32 49.12337 27.65682 27054 ft 433 kts 48°
2026-05-04 18:33 49.14316 27.69117 27054 ft 433 kts 48°
2026-05-04 18:33 49.16305 27.72574 27051 ft 433 kts 48°
2026-05-04 18:33 49.18286 27.76022 27048 ft 433 kts 48°
2026-05-04 18:33 49.20258 27.79459 27049 ft 433 kts 48°
2026-05-04 18:34 49.22248 27.82931 27052 ft 432 kts 48°
2026-05-04 18:34 49.24207 27.86354 27051 ft 433 kts 49°
2026-05-04 18:34 49.26191 27.89824 27047 ft 433 kts 49°
2026-05-04 18:34 49.28162 27.93278 27047 ft 432 kts 49°
2026-05-04 18:35 49.30145 27.96756 27050 ft 432 kts 49°
2026-05-04 18:35 49.32127 28.00237 27047 ft 433 kts 49°
2026-05-04 18:35 49.34097 28.03702 27048 ft 433 kts 48°
2026-05-04 18:35 49.36049 28.07140 27042 ft 433 kts 49°
2026-05-04 18:36 49.38035 28.10643 27046 ft 433 kts 49°
2026-05-04 18:36 49.40017 28.14141 27040 ft 433 kts 49°
2026-05-04 18:36 49.41965 28.17587 27036 ft 433 kts 49°
2026-05-04 18:36 49.43945 28.21093 27034 ft 433 kts 49°
2026-05-04 18:37 49.45903 28.24564 27037 ft 432 kts 49°
2026-05-04 18:37 49.47865 28.28048 27034 ft 432 kts 49°
2026-05-04 18:37 49.49834 28.31547 27032 ft 433 kts 49°
2026-05-04 18:37 49.51792 28.35033 27031 ft 433 kts 49°
2026-05-04 18:38 49.53763 28.38545 27029 ft 433 kts 49°
2026-05-04 18:38 49.55708 28.42017 27031 ft 433 kts 49°
2026-05-04 18:38 49.57670 28.45522 27030 ft 433 kts 49°
2026-05-04 18:38 49.59636 28.49040 27029 ft 434 kts 49°
2026-05-04 18:39 49.61610 28.52580 27026 ft 434 kts 49°
2026-05-04 18:39 49.63566 28.56089 27030 ft 433 kts 49°
2026-05-04 18:39 49.65522 28.59602 27029 ft 433 kts 49°
2026-05-04 18:39 49.67491 28.63147 27031 ft 433 kts 49°
2026-05-04 18:40 49.69445 28.66666 27026 ft 433 kts 49°
2026-05-04 18:40 49.71409 28.70210 27027 ft 433 kts 49°
2026-05-04 18:40 49.73348 28.73712 27029 ft 433 kts 49°
2026-05-04 18:40 49.75323 28.77286 27028 ft 433 kts 49°
2026-05-04 18:41 49.77274 28.80819 27025 ft 433 kts 50°
2026-05-04 18:41 49.79228 28.84363 27026 ft 434 kts 49°
2026-05-04 18:41 49.81166 28.87883 26999 ft 435 kts 49°
2026-05-04 18:41 49.83126 28.91449 26738 ft 435 kts 49°
2026-05-04 18:42 49.85088 28.95021 26394 ft 434 kts 49°
2026-05-04 18:42 49.87019 28.98542 26005 ft 433 kts 49°
2026-05-04 18:42 49.88965 29.02094 25611 ft 432 kts 50°
2026-05-04 18:42 49.90906 29.05644 25221 ft 431 kts 50°
2026-05-04 18:43 49.92830 29.09169 24816 ft 428 kts 50°
2026-05-04 18:43 49.94736 29.12665 24358 ft 425 kts 50°
2026-05-04 18:43 49.96636 29.16153 23875 ft 421 kts 50°
2026-05-04 18:43 49.98498 29.19577 23397 ft 417 kts 50°
2026-05-04 18:44 50.00356 29.22998 22919 ft 415 kts 50°
2026-05-04 18:44 50.01584 29.25262 22605 ft 413 kts 49°
2026-05-04 18:44 50.04028 29.29773 21975 ft 410 kts 49°
2026-05-04 18:44 50.05868 29.33176 21504 ft 407 kts 49°
2026-05-04 18:45 50.07655 29.36482 21036 ft 404 kts 49°
2026-05-04 18:45 50.09471 29.39849 20565 ft 401 kts 49°
2026-05-04 18:45 50.11241 29.43133 20103 ft 399 kts 49°
2026-05-04 18:45 50.13009 29.46417 19636 ft 396 kts 49°
2026-05-04 18:46 50.14770 29.49694 19178 ft 394 kts 49°
2026-05-04 18:46 50.16506 29.52964 18719 ft 392 kts 50°
2026-05-04 18:46 50.18119 29.56340 18261 ft 391 kts 54°
2026-05-04 18:46 50.19555 29.59916 17802 ft 389 kts 58°
2026-05-04 18:47 50.20822 29.63613 17343 ft 387 kts 61°
2026-05-04 18:47 50.22005 29.67408 16875 ft 385 kts 63°
2026-05-04 18:47 50.23127 29.71154 16423 ft 383 kts 63°
2026-05-04 18:47 50.24236 29.74887 15969 ft 381 kts 63°
2026-05-04 18:48 50.25345 29.78614 15514 ft 379 kts 63°
2026-05-04 18:48 50.26462 29.82340 15057 ft 376 kts 63°
2026-05-04 18:48 50.27558 29.85976 14611 ft 373 kts 63°
2026-05-04 18:48 50.28670 29.89653 14154 ft 370 kts 63°
2026-05-04 18:49 50.29765 29.93257 13704 ft 368 kts 63°
2026-05-04 18:49 50.30853 29.96800 13271 ft 365 kts 62°
2026-05-04 18:49 50.31962 30.00397 12815 ft 362 kts 62°
2026-05-04 18:49 50.33034 30.03877 12377 ft 354 kts 62°
2026-05-04 18:50 50.34089 30.07310 11935 ft 347 kts 62°
2026-05-04 18:50 50.35113 30.10653 11510 ft 341 kts 62°
2026-05-04 18:50 50.36120 30.13949 11095 ft 333 kts 62°
2026-05-04 18:50 50.37095 30.17150 10708 ft 321 kts 62°
2026-05-04 18:51 50.38037 30.20248 10317 ft 310 kts 62°
2026-05-04 18:51 50.38950 30.23254 9927 ft 301 kts 62°
2026-05-04 18:51 50.39833 30.26160 9531 ft 293 kts 62°
2026-05-04 18:51 50.40694 30.28993 9120 ft 284 kts 62°
2026-05-04 18:52 50.41518 30.31701 8751 ft 272 kts 62°
2026-05-04 18:52 50.42316 30.34329 8447 ft 261 kts 62°
2026-05-04 18:52 50.43081 30.36846 8141 ft 258 kts 62°
2026-05-04 18:52 50.43845 30.39352 7868 ft 254 kts 62°
2026-05-04 18:53 50.44610 30.41860 7596 ft 253 kts 62°
2026-05-04 18:53 50.45362 30.44345 7322 ft 253 kts 62°
2026-05-04 18:53 50.46112 30.46843 7049 ft 254 kts 62°
2026-05-04 18:53 50.46849 30.49307 6781 ft 253 kts 62°
2026-05-04 18:54 50.47597 30.51804 6511 ft 252 kts 62°
2026-05-04 18:54 50.48351 30.54311 6234 ft 251 kts 62°
2026-05-04 18:54 50.49085 30.56750 5962 ft 248 kts 62°
2026-05-04 18:54 50.49819 30.59192 5687 ft 246 kts 62°
2026-05-04 18:55 50.50545 30.61609 5409 ft 243 kts 63°
2026-05-04 18:55 50.51964 30.66361 4867 ft 239 kts 64°
2026-05-04 18:55 50.52669 30.68712 4589 ft 233 kts 64°
2026-05-04 18:56 50.53346 30.70963 4391 ft 228 kts 64°
2026-05-04 18:56 50.54017 30.73206 4173 ft 225 kts 64°
2026-05-04 18:56 50.54737 30.75357 3969 ft 220 kts 53°
2026-05-04 18:56 50.55837 30.76961 3768 ft 218 kts 26°
2026-05-04 18:57 50.57270 30.77716 3587 ft 216 kts 14°
2026-05-04 18:57 50.58557 30.78788 3385 ft 211 kts 48°
2026-05-04 18:57 50.59092 30.80845 3186 ft 207 kts 91°
2026-05-04 18:57 50.58755 30.82973 3023 ft 201 kts 118°
2026-05-04 18:58 50.57996 30.84710 2991 ft 185 kts 131°
2026-05-04 18:58 50.57182 30.86230 2998 ft 178 kts 128°
2026-05-04 18:58 50.56481 30.87823 2998 ft 179 kts 123°
2026-05-04 18:58 50.55821 30.89497 2998 ft 178 kts 122°
2026-05-04 18:59 50.55131 30.91087 2995 ft 178 kts 134°
2026-05-04 18:59 50.54080 30.92025 2997 ft 176 kts 173°
2026-05-04 18:59 50.52856 30.91958 3001 ft 176 kts 188°
2026-05-04 18:59 50.51635 30.91773 2997 ft 176 kts 184°
2026-05-04 19:00 50.50435 30.91696 3037 ft 171 kts 182°
2026-05-04 19:00 50.49263 30.91622 2974 ft 165 kts 183°
2026-05-04 19:00 50.48107 30.91534 2807 ft 165 kts 184°
2026-05-04 19:00 50.46984 30.91450 2558 ft 158 kts 183°
2026-05-04 19:01 50.45920 30.91372 2343 ft 148 kts 183°
2026-05-04 19:01 50.44924 30.91299 2162 ft 143 kts 184°
2026-05-04 19:01 50.43926 30.91225 1966 ft 143 kts 184°
2026-05-04 19:01 50.42940 30.91153 1776 ft 141 kts 184°
2026-05-04 19:02 50.41963 30.91081 1585 ft 141 kts 184°
2026-05-04 19:02 50.40974 30.91008 1397 ft 140 kts 184°
2026-05-04 19:02 50.40002 30.90937 1205 ft 140 kts 183°
2026-05-04 19:02 50.39021 30.90864 1020 ft 141 kts 182°
2026-05-04 19:03 50.38041 30.90787 844 ft 141 kts 182°
2026-05-04 19:03 50.37072 30.90722 661 ft 141 kts 182°
2026-05-04 19:03 50.36095 30.90653 482 ft 141 kts 182°
2026-05-04 19:03 50.35137 30.90587 404 ft 124 kts 181°
2026-05-04 19:04 50.34523 30.90544 406 ft 52 kts 182°
2026-05-04 19:04 50.34323 30.90514 408 ft 28 kts 189°
2026-05-04 19:04 50.34193 30.90448 407 ft 17 kts 208°
2026-05-04 19:04 50.34113 30.90370 408 ft 10 kts 213°
2026-05-04 19:05 50.34092 30.90348 408 ft 0 kts 213°
2026-05-04 19:08 50.34089 30.90345 408 ft 3 kts 213°
2026-05-04 19:08 50.34036 30.90291 408 ft 10 kts 214°
2026-05-04 19:08 50.33973 30.90225 408 ft 12 kts 213°
2026-05-04 19:08 50.33884 30.90163 407 ft 15 kts 187°
2026-05-04 19:09 50.33782 30.90157 408 ft 14 kts 183°
2026-05-04 19:09 50.33684 30.90151 410 ft 13 kts 182°
2026-05-04 19:09 50.33585 30.90143 413 ft 14 kts 183°
2026-05-04 19:09 50.33505 30.90100 415 ft 11 kts 234°
2026-05-04 19:10 50.33502 30.90001 415 ft 5 kts 305°
2026-05-04 19:10 50.33513 30.89991 415 ft 0 kts 357°
2026-05-04 19:10 50.33541 30.90002 414 ft 4 kts
2026-05-04 19:10 50.33558 30.90002 414 ft 0 kts